TimeAKDT,TemperatureF,Dew PointF,Humidity,Sea Level PressureIn,VisibilityMPH,Wind Direction,Wind SpeedMPH,Gust SpeedMPH,PrecipitationIn,Events,Conditions,WindDirDegrees,DateUTC
12:16 AM,42.8,37.4,81,29.81,10.0,North,3.5,-,N/A,,Overcast,10,2013-09-13 08:16:00
12:36 AM,41.0,37.4,87,29.82,10.0,NW,3.5,-,N/A,,Overcast,320,2013-09-13 08:36:00
12:56 AM,42.8,37.4,81,29.81,10.0,WNW,3.5,-,N/A,,Scattered Clouds,300,2013-09-13 08:56:00
1:16 AM,42.8,35.6,76,29.82,10.0,WNW,4.6,-,N/A,,Clear,300,2013-09-13 09:16:00
1:36 AM,42.8,37.4,81,29.83,10.0,West,3.5,-,N/A,,Clear,270,2013-09-13 09:36:00
1:56 AM,37.4,35.6,93,29.84,10.0,Calm,Calm,-,N/A,,Clear,0,2013-09-13 09:56:00
2:16 AM,35.6,32.0,87,29.85,10.0,NNE,4.6,-,N/A,,Clear,30,2013-09-13 10:16:00
2:36 AM,33.8,32.0,93,29.85,10.0,NNE,5.8,-,N/A,,Clear,20,2013-09-13 10:36:00
2:56 AM,35.6,33.8,93,29.86,10.0,North,5.8,-,N/A,,Mostly Cloudy,10,2013-09-13 10:56:00
3:16 AM,33.8,32.0,93,29.86,10.0,NNE,6.9,-,N/A,,Partly Cloudy,20,2013-09-13 11:16:00
3:36 AM,33.8,30.2,87,29.86,10.0,NE,5.8,-,N/A,,Clear,50,2013-09-13 11:36:00
3:56 AM,33.8,32.0,93,29.86,10.0,NNE,6.9,-,N/A,,Clear,20,2013-09-13 11:56:00
4:16 AM,33.8,32.0,93,29.86,10.0,NNE,6.9,-,N/A,,Clear,30,2013-09-13 12:16:00
4:36 AM,37.4,33.8,87,29.86,10.0,NE,5.8,-,N/A,,Partly Cloudy,40,2013-09-13 12:36:00
4:56 AM,33.8,30.2,87,29.86,10.0,NE,5.8,-,N/A,,Mostly Cloudy,40,2013-09-13 12:56:00
5:16 AM,37.4,33.8,87,29.86,10.0,East,3.5,-,N/A,,Overcast,80,2013-09-13 13:16:00
5:36 AM,37.4,33.8,87,29.86,10.0,ENE,3.5,-,N/A,,Overcast,60,2013-09-13 13:36:00
5:56 AM,37.4,33.8,87,29.86,10.0,East,3.5,-,N/A,,Overcast,90,2013-09-13 13:56:00
6:16 AM,37.4,33.8,87,29.87,10.0,SE,3.5,-,N/A,,Overcast,140,2013-09-13 14:16:00
6:36 AM,39.2,35.6,87,29.87,10.0,Calm,Calm,-,N/A,,Overcast,0,2013-09-13 14:36:00
6:56 AM,39.2,37.4,93,29.87,10.0,South,3.5,-,N/A,,Overcast,170,2013-09-13 14:56:00
7:16 AM,37.4,35.6,93,29.87,10.0,East,3.5,-,N/A,,Overcast,100,2013-09-13 15:16:00
7:36 AM,39.2,35.6,87,29.87,10.0,Calm,Calm,-,N/A,,Overcast,0,2013-09-13 15:36:00
7:56 AM,37.4,35.6,93,29.87,10.0,East,3.5,-,N/A,,Overcast,100,2013-09-13 15:56:00
8:16 AM,37.4,33.8,87,29.87,10.0,ENE,4.6,-,N/A,,Mostly Cloudy,70,2013-09-13 16:16:00
8:36 AM,39.2,35.6,87,29.87,10.0,East,4.6,-,N/A,,Overcast,80,2013-09-13 16:36:00
8:56 AM,39.2,35.6,87,29.87,10.0,East,4.6,-,N/A,,Overcast,90,2013-09-13 16:56:00
9:16 AM,39.2,35.6,87,29.87,10.0,East,4.6,-,N/A,,Overcast,90,2013-09-13 17:16:00
9:36 AM,42.8,37.4,81,29.87,10.0,South,8.1,-,N/A,,Overcast,180,2013-09-13 17:36:00
9:56 AM,44.6,39.2,81,29.87,10.0,South,8.1,-,N/A,,Overcast,170,2013-09-13 17:56:00
10:16 AM,44.6,39.2,81,29.87,10.0,South,9.2,-,N/A,,Overcast,190,2013-09-13 18:16:00
10:36 AM,44.6,39.2,81,29.87,10.0,South,10.4,-,N/A,,Overcast,180,2013-09-13 18:36:00
10:56 AM,46.4,39.2,76,29.87,10.0,South,9.2,-,N/A,,Overcast,190,2013-09-13 18:56:00
11:16 AM,46.4,39.2,76,29.87,10.0,SSW,9.2,-,N/A,,Overcast,200,2013-09-13 19:16:00
11:36 AM,46.4,39.2,76,29.87,10.0,South,10.4,-,N/A,,Overcast,190,2013-09-13 19:36:00
11:56 AM,46.4,39.2,76,29.88,10.0,SSW,8.1,-,N/A,,Overcast,200,2013-09-13 19:56:00
12:16 PM,46.4,39.2,76,29.88,10.0,SSW,11.5,-,N/A,,Overcast,200,2013-09-13 20:16:00
12:36 PM,46.4,41.0,81,29.89,10.0,SSW,10.4,-,N/A,,Overcast,200,2013-09-13 20:36:00
12:56 PM,46.4,41.0,81,29.88,10.0,SSW,11.5,-,N/A,,Overcast,200,2013-09-13 20:56:00
1:16 PM,48.2,42.8,82,29.89,10.0,South,13.8,-,N/A,,Overcast,190,2013-09-13 21:16:00
1:36 PM,46.4,44.6,93,29.89,4.0,SW,13.8,-,N/A,,Mostly Cloudy,220,2013-09-13 21:36:00
1:56 PM,44.6,42.8,93,29.89,2.0,SW,9.2,-,0.01,,Overcast,230,2013-09-13 21:56:00
2:16 PM,46.4,42.8,87,29.90,9.0,SSW,13.8,-,N/A,,Overcast,200,2013-09-13 22:16:00
2:36 PM,46.4,42.8,87,29.90,3.0,SSW,11.5,-,N/A,,Overcast,200,2013-09-13 22:36:00
2:56 PM,46.4,44.6,93,29.90,2.5,South,9.2,-,N/A,,Overcast,180,2013-09-13 22:56:00
3:16 PM,46.4,44.6,93,29.90,2.0,South,8.1,-,N/A,,Overcast,190,2013-09-13 23:16:00
3:36 PM,46.4,44.6,93,29.89,3.0,South,12.7,-,N/A,,Overcast,190,2013-09-13 23:36:00
3:56 PM,46.4,46.4,100,29.89,5.0,South,10.4,-,N/A,,Overcast,190,2013-09-13 23:56:00
4:16 PM,46.4,46.4,100,29.89,3.0,South,10.4,-,N/A,,Overcast,190,2013-09-14 00:16:00
4:36 PM,48.2,46.4,93,29.89,4.0,SSW,10.4,-,N/A,,Overcast,200,2013-09-14 00:36:00
5:16 PM,48.2,46.4,93,29.89,4.0,South,11.5,-,N/A,,Overcast,180,2013-09-14 01:16:00
6:16 PM,48.2,46.4,93,29.89,10.0,West,5.8,-,N/A,,Overcast,280,2013-09-14 02:16:00
6:36 PM,48.2,46.4,93,29.90,10.0,West,5.8,-,N/A,,Overcast,260,2013-09-14 02:36:00
6:56 PM,50.0,46.4,87,29.90,10.0,West,6.9,-,N/A,,Overcast,260,2013-09-14 02:56:00
7:16 PM,50.0,46.4,87,29.91,10.0,West,4.6,-,N/A,,Overcast,260,2013-09-14 03:16:00
7:36 PM,48.2,46.4,93,29.91,10.0,WSW,4.6,-,N/A,,Overcast,250,2013-09-14 03:36:00
7:56 PM,48.2,46.4,93,29.92,4.0,West,5.8,-,N/A,,Overcast,280,2013-09-14 03:56:00
8:16 PM,48.2,46.4,93,29.92,10.0,NNW,11.5,-,N/A,,Overcast,330,2013-09-14 04:16:00
9:16 PM,46.4,44.6,93,29.95,10.0,North,9.2,-,N/A,,Mostly Cloudy,350,2013-09-14 05:16:00
10:16 PM,44.6,42.8,93,29.97,10.0,NNW,8.1,-,N/A,,Overcast,340,2013-09-14 06:16:00
10:36 PM,44.6,42.8,93,29.98,10.0,NNW,6.9,-,N/A,,Mostly Cloudy,340,2013-09-14 06:36:00
10:56 PM,44.6,42.8,93,29.98,10.0,NNW,10.4,-,N/A,,Partly Cloudy,330,2013-09-14 06:56:00
11:16 PM,42.8,41.0,93,29.99,10.0,NNW,10.4,-,N/A,,Clear,330,2013-09-14 07:16:00